Overview Statistics Trail Chart Weather Telemetry Raw packets
 

This is the latest recevied weather packets stored in our database for station/object K1NOT-WX. If no packets are shown the sender has not sent any weather packets the latest 10 day(s).

<< 1 2 3 4 5 6 7 >>
Time Temp. Humidity Pressure Rain* Wind** Luminosity Snow
1777679833 20° C 49% 1005.8 hPa 0 mm - - -
1777678933 20° C 50% 1005.8 hPa 0 mm - - -
1777678033 20° C 50% 1006.1 hPa 0 mm - - -
1777677133 20° C 51% 1006.1 hPa 0 mm - - -
1777676233 19.44° C 52% 1006.4 hPa 0 mm - - -
1777675333 19.44° C 52% 1006.4 hPa 0 mm - - -
1777674433 20° C 51% 1006.8 hPa 0 mm - - -
1777673533 19.44° C 54% 1006.8 hPa 0 mm - - -
1777672633 20° C 53% 1006.8 hPa 0 mm - - -
1777671733 20° C 53% 1006.8 hPa 0 mm - - -
1777670833 20° C 53% 1006.8 hPa 0 mm - - -
1777669933 18.89° C 56% 1006.8 hPa 0 mm - - -
1777669033 19.44° C 55% 1007.1 hPa 0 mm - - -
1777668133 19.44° C 56% 1007.1 hPa 0 mm - - -
1777667233 18.33° C 58% 1007.1 hPa 0 mm - - -
1777666332 18.33° C 59% 1007.1 hPa 0 mm - - -
1777665433 17.78° C 60% 1007.4 hPa 0 mm - - -
1777664532 17.78° C 62% 1007.1 hPa 0 mm - - -
1777663632 17.78° C 62% 1007.4 hPa 0 mm - - -
1777662732 17.78° C 64% 1007.4 hPa 0 mm - - -
1777661832 17.22° C 65% 1007.4 hPa 0 mm - - -
1777660932 17.78° C 63% 1007.8 hPa 0 mm - - -
1777660032 17.22° C 65% 1007.8 hPa 0 mm - - -
1777659132 16.67° C 65% 1007.8 hPa 0 mm - - -
1777658232 16.67° C 66% 1008.1 hPa 0 mm - - -

* Rain latest hour (hover to see other rain measurements)
** Current wind speed in m/s (hover to see current wind gust speed)